DELTA 1 R/B(2), 1318

Orbit data source: Space-Track

DELTA 1 R/B(2), 1318 is space debris in HEO originally from a launch on Tue, 06 Apr 1965 UTC launched from the Air Force Eastern Test Range (AFETR). Debris objects in space refer to the collection of defunct objects orbiting the Earth. Examples of debris include non-operational satellites, rocket bodies, and fragments generated from explosions, collisions, or faulty payload assembly.

Loading next visibility...
Identifier
1318, 1965-028B
Orbit
HEO
Country
Flag of USUS
Related business
Manufacturer
ABL
Mission
Spacecraft
Bus & Motor
ALTAIR, Unknown motor
Mass
33 kg wet, 33 kg dry
Launch date (UTC)
1965-04-06 (61 years ago)
Launch vehicle
Unknown
Launch site
Air Force Eastern Test Range (AFETR)
Object type
Payload
Rocket body
Debris
Shape & HBR
Unknown
Radar Cross Section
Medium (>0.1 m² and <1 m²)

Expand to show TLE details & history
Last TLE update: 2 days ago

TLE from 2 days ago
0 DELTA 1 R/B(2)
1 01318U 65028B   26162.18082337 -.00000149  00000-0  00000-0 0  9998
2 01318  17.7500 267.6102 6944015 147.9753 285.8018  2.11826754107202
Epoch: 2026-06-11T04:20Z
TLE epoch observation values (Epoch: 2026-06-11T04:20:23.139Z)
Latitude
0.09226°
Longitude
-56.76872°
Altitude
25,729.582 km
Speed
3.044 km/s
True Right ascension
17h 51m 25s
True Declination
0° 05' 32"
Sunlit
Object was in daylight at epoch
Visualization orbit readout
Latitude
Unknown
Longitude
Unknown
Altitude
Unknown
Speed
Unknown
Apparent Right ascension
Unknown
Apparent Declination
Unknown
Sunlit
N/A
Visualization observer readout
Local Sidereal Time
13:22:13
Azimuth
Unknown
Elevation
Unknown
Doppler factor
Unknown
Orbital elements
Apogee altitude
37,022.748 km
Perigee altitude
1,449.55 km
Semi-major axis
25,614.286 km
Eccentricity
0.6944
Inclination
17.75°
RAAN
267.6102°
Arg. of periapsis
147.9753°
True anomaly
212.3854°
Mean anomaly
285.8018°
Eccentric anomaly
248.72658°
Mean motion
0.52944 °/min
Orbital period
679.96 mins
BSTAR
0
Loading maneuver chart data...
Computing Atmospheric mass density...
Loading historical data...
Loading historical data...
Loading historical data...
Loading historical data...
Loading historical data...
Loading historical data...
Loading historical data...
Other satellites on launch #28 in the year 1965 (1965-04-06 UTC)

Documentation

Showing up to 5 results
|